Wind_Speed
7 7 6 7 9 11 12 14 14 14 14 14 14 13 13 12 11 11 11 10 9 9 10 10 11 11 11 11 11 10 10 10 11 11 12 13 12 12 13 12 12 13 13 13 12 13 13 13 13 13 13 13 13 14 14 13 13 13 13 12 12 12 12 12 11 10 11 11 10 10 10 11 12 12 12 13 14 14 14 14 13 13 12 12 13
7 7 6 7 7 9 11 12 14 14 15 14 13 13 12 12 12 11 11 10 9 8 8 8 9 10 10 10 10 11 10 9 10 10 11 11 11 11 12 12 11 11 12 11 11 12 12 12 12 12 12 12 12 12 12 12 12 12 12 11 10 11 11 11 10 10 10 10 10 10 10 11 12 12 12 12 12 12 12 13 12 11 11 11 12
8 7 8 8 7 8 9 11 12 13 13 13 13 12 12 12 12 11 11 10 10 9 8 7 7 8 8 9 9 10 10 9 9 10 10 10 10 10 10 11 11 10 10 10 10 10 11 12 12 11 11 11 11 11 11 11 11 11 11 10 10 9 9 10 10 9 9 9 9 10 10 10 11 11 11 11 11 11 10 11 11 10 9 10 11
8 8 8 9 8 8 8 9 11 13 13 13 13 12 12 12 12 12 11 11 10 9 8 7 6 6 7 7 8 9 9 9 9 10 10 9 9 9 9 9 9 9 9 9 9 9 10 10 11 11 11 11 10 10 10 10 10 10 10 10 9 9 8 9 10 9 8 8 9 10 10 11 11 10 11 11 11 10 9 9 10 9 8 8 9
10 9 9 10 9 9 8 9 10 11 13 13 13 12 12 11 11 11 11 11 10 9 9 8 6 6 6 6 7 8 8 8 8 9 9 9 8 8 8 8 8 8 8 7 8 8 8 9 9 10 10 9 10 10 10 10 9 9 9 9 9 9 8 8 9 9 9 8 9 9 10 11 11 10 10 11 10 9 8 7 8 8 7 6 6
13 11 10 10 9 8 8 8 8 9 11 12 12 12 11 11 11 11 11 12 11 10 9 7 6 6 6 6 6 7 8 7 7 7 8 8 8 7 7 7 7 7 7 7 7 8 8 8 8 8 8 8 8 9 10 10 9 9 9 9 9 8 8 8 9 9 9 8 9 10 10 10 10 9 10 10 10 8 7 6 6 7 7 5 4
14 13 11 9 8 8 7 8 8 8 9 10 10 11 11 12 12 12 12 12 12 11 10 7 6 5 5 6 5 6 7 7 7 6 6 7 7 7 6 6 6 6 7 7 7 8 8 8 8 8 8 8 8 8 9 10 10 9 9 9 9 9 8 8 8 8 9 9 9 10 10 10 10 9 9 10 9 8 7 6 5 5 6 5 4
15 14 12 10 9 9 8 7 8 8 8 9 9 10 11 11 12 12 13 13 13 12 11 9 7 6 5 5 5 5 6 7 7 6 5 6 7 7 6 6 6 6 7 7 7 7 8 8 8 8 8 8 8 8 8 9 10 10 9 9 9 9 8 8 8 8 8 8 9 9 9 10 10 8 8 9 9 8 7 6 5 4 4 4 4
16 15 14 13 12 11 9 7 7 7 8 9 9 9 9 10 11 12 13 14 14 13 12 11 9 7 6 5 5 5 6 7 8 7 6 6 6 7 7 6 7 7 7 7 7 7 8 8 8 8 8 8 8 8 8 9 9 10 10 9 9 8 8 8 8 8 8 8 8 9 9 9 10 9 8 8 8 9 7 5 4 3 2 2 2
16 16 16 14 14 12 10 8 7 7 8 8 8 9 9 9 10 11 13 14 14 13 12 12 11 9 8 6 6 6 6 7 8 8 7 7 7 7 7 6 7 7 7 7 7 7 7 7 8 8 8 8 8 7 7 8 8 9 10 9 9 8 8 8 7 8 8 8 8 8 8 8 9 9 9 8 8 8 8 6 4 3 2 2 2
18 17 17 15 14 13 10 9 9 8 8 9 9 10 10 9 9 10 12 14 14 13 13 12 12 11 9 8 7 7 7 7 8 9 8 8 8 8 7 7 7 7 8 8 8 8 7 7 7 8 8 8 7 7 7 7 7 8 9 9 9 8 8 7 7 7 7 8 8 8 8 7 7 7 8 8 8 8 8 8 6 4 3 2 2
20 19 18 16 14 12 10 10 10 9 9 10 10 10 10 10 9 10 12 13 14 14 13 12 12 11 10 9 8 7 8 8 8 9 10 9 9 8 8 7 7 8 8 8 8 8 8 7 7 7 8 8 7 7 7 6 7 8 8 9 9 9 8 8 7 7 7 7 8 8 8 8 8 6 6 7 8 7 7 7 7 5 5 4 3
22 20 19 18 16 14 12 12 11 11 11 10 10 9 9 9 9 9 10 12 13 13 13 12 11 11 11 10 9 7 7 8 8 9 10 10 10 9 9 8 8 8 8 9 9 8 8 7 7 7 7 8 7 6 6 6 6 7 8 9 9 9 9 9 8 8 7 7 8 8 8 8 9 8 6 6 7 7 6 6 5 5 5 5 4
24 22 21 20 18 16 15 14 13 12 11 10 10 10 9 8 7 7 8 9 11 12 12 12 11 11 11 11 10 8 7 7 7 8 9 10 10 10 9 9 8 8 9 9 10 9 9 8 8 7 7 7 7 6 6 6 6 7 8 9 9 9 9 9 9 9 8 7 8 8 8 8 8 9 9 8 7 7 7 7 6 5 5 5 5
23 23 22 21 19 18 17 15 14 13 12 12 12 11 10 9 9 9 9 9 9 10 11 11 11 10 10 11 11 9 7 6 7 8 9 10 10 11 11 10 9 9 9 10 10 10 10 9 8 8 7 7 7 6 6 6 6 7 7 8 9 9 9 9 10 10 9 8 8 7 8 8 8 9 10 10 9 8 7 7 7 7 6 5 5
24 23 21 21 21 20 18 16 15 14 14 15 15 14 13 12 12 11 11 11 10 10 10 10 11 11 10 10 11 11 9 7 7 8 9 10 11 11 12 11 11 10 10 11 11 11 11 10 10 9 8 8 7 6 6 6 6 8 7 8 9 9 9 9 10 11 10 9 9 8 8 8 9 9 9 9 8 8 7 7 7 7 7 7 6
24 23 22 23 24 22 18 14 14 15 15 15 16 17 16 15 14 13 13 13 13 13 12 11 11 11 11 11 12 12 12 10 9 8 9 10 11 12 12 13 12 11 11 11 12 12 12 12 11 10 10 9 8 7 7 6 7 7 8 8 8 9 9 9 11 12 12 11 10 9 9 9 9 8 7 7 7 8 8 9 8 8 8 8 7
22 23 25 25 23 22 18 13 13 16 16 15 16 17 17 17 16 16 15 15 15 15 14 13 12 11 12 13 13 14 14 13 11 9 9 11 12 12 13 14 13 13 12 12 13 13 12 12 12 11 11 10 9 8 7 7 7 8 8 8 8 9 9 10 11 12 12 12 12 11 10 9 8 8 8 8 8 9 9 8 8 8 8 7 7
22 21 23 20 15 16 16 15 17 19 18 16 16 17 18 18 18 18 18 18 16 15 15 14 14 14 14 14 15 16 16 15 13 11 10 11 12 13 14 14 15 14 14 14 14 13 13 13 12 12 11 11 10 10 9 8 8 9 9 9 9 9 9 10 11 12 13 13 13 13 12 11 10 9 9 8 8 8 7 7 7 8 7 6 6
20 17 17 14 12 14 16 17 19 21 21 19 17 18 19 19 18 18 19 20 19 17 16 16 16 17 17 16 17 18 18 17 16 13 12 11 12 14 14 15 16 16 15 15 14 14 14 14 13 12 12 11 11 11 11 10 10 10 10 10 10 10 10 11 11 12 13 14 14 14 14 13 12 11 10 9 8 8 7 6 7 7 7 7 7
15 13 13 12 13 14 15 17 17 18 20 20 17 16 17 19 19 19 20 22 23 21 20 20 20 19 19 19 19 19 20 19 18 16 13 12 12 13 14 15 16 17 16 16 15 15 15 15 14 13 13 12 12 12 12 11 12 11 11 11 11 11 11 11 11 12 13 13 14 15 14 14 13 13 12 11 10 9 9 8 8 8 8 8 9
13 12 13 15 15 14 14 16 15 16 18 19 17 17 18 20 21 22 22 22 24 25 24 23 22 19 17 17 16 16 16 17 17 15 12 11 11 12 13 14 15 16 16 16 15 15 15 15 15 14 14 13 12 11 12 12 12 12 12 12 12 12 11 11 11 12 12 13 13 14 14 14 14 14 14 14 13 12 12 12 11 11 11 10 10
15 14 14 16 17 16 15 15 15 15 16 18 19 20 20 19 20 24 24 22 23 26 25 22 19 16 15 16 14 12 12 13 15 16 14 12 12 11 11 12 13 14 15 16 15 15 15 15 15 15 14 13 12 12 12 12 12 13 13 12 12 12 12 12 11 11 12 13 13 13 14 14 15 15 15 14 14 14 14 14 14 14 13 12 12
15 16 16 17 18 19 18 17 17 17 18 19 19 20 20 18 17 20 21 21 22 24 22 20 19 17 16 17 16 14 14 14 15 18 18 15 13 12 12 12 12 12 14 15 15 15 15 15 15 15 15 14 13 12 12 12 13 13 13 13 13 12 13 13 12 12 12 13 13 13 13 14 14 15 15 15 15 15 15 15 15 15 14 14 14
17 18 19 19 20 20 20 20 20 19 20 20 18 18 18 17 15 13 13 17 21 23 22 21 21 21 20 19 19 18 17 15 15 17 18 17 15 13 13 13 13 13 13 13 14 15 16 15 15 14 14 14 13 12 12 13 13 14 14 14 14 13 13 13 13 13 13 13 13 13 13 14 15 15 15 15 15 15 15 15 15 15 15 15 15
21 21 22 22 22 22 20 21 21 20 21 21 18 16 16 14 12 10 10 13 17 20 22 23 23 22 23 23 21 21 20 17 16 18 20 19 18 17 16 15 14 14 13 13 13 15 16 16 15 15 14 14 14 13 13 13 14 14 15 15 15 15 14 14 14 14 14 14 14 14 14 15 15 15 15 16 16 15 16 16 16 16 16 15 15
24 24 24 24 24 23 22 21 22 22 23 23 20 18 17 14 10 8 9 11 12 14 16 20 23 23 23 22 21 21 21 20 20 20 21 22 21 20 19 17 16 15 14 14 13 14 15 16 16 16 15 15 15 15 14 14 15 15 16 16 17 16 16 15 15 15 15 15 15 15 16 16 16 16 16 16 16 16 16 16 16 16 16 15 15
25 24 24 25 25 25 24 23 23 23 23 23 22 21 20 17 12 9 10 12 12 10 9 12 19 22 22 21 20 21 22 21 21 21 22 23 23 22 21 20 19 17 16 16 15 14 14 16 16 17 16 16 16 16 16 16 16 16 17 17 17 18 17 17 17 16 16 16 16 17 17 17 17 17 17 17 17 17 17 17 17 17 16 16 16
24 24 25 26 27 27 26 26 24 22 22 23 22 22 22 20 16 12 12 14 14 11 8 8 12 17 21 22 21 21 22 22 21 22 23 24 24 24 24 22 21 19 18 18 17 16 15 16 17 17 17 16 16 17 18 18 17 17 17 17 17 18 18 18 19 18 18 18 18 18 18 19 19 19 18 18 18 18 18 18 18 18 18 18 17
24 25 26 26 27 28 27 26 26 24 24 24 23 23 22 22 20 17 16 16 15 13 12 10 9 11 16 20 21 21 22 23 24 24 25 26 26 25 25 24 22 21 21 20 19 18 17 17 18 19 18 18 18 18 19 19 19 18 18 18 18 18 18 19 19 19 19 19 19 19 20 20 20 20 20 20 20 20 20 20 20 19 19 19 18
24 25 27 28 28 29 28 27 26 26 25 24 24 23 22 22 22 20 18 16 14 13 13 12 10 9 11 15 19 21 22 23 24 25 26 26 25 25 24 25 24 23 22 21 20 19 19 19 19 19 20 20 20 21 21 21 21 20 20 19 19 19 19 19 19 20 20 21 21 21 21 21 22 22 22 22 22 22 22 22 22 21 20 19 19
25 26 28 29 30 30 29 28 27 27 26 25 24 23 22 23 24 22 19 16 14 12 12 12 11 11 10 13 17 19 21 22 23 24 26 26 26 25 25 26 26 25 24 22 21 21 21 20 20 20 20 20 21 22 22 22 22 22 21 21 20 20 19 19 20 20 21 22 22 22 22 22 22 23 24 24 24 24 24 24 23 22 21 20 19
28 28 29 30 32 32 32 31 30 29 28 27 26 25 22 22 23 22 20 18 16 14 13 12 12 13 13 13 15 17 19 21 23 24 26 27 27 27 27 27 28 28 27 24 22 22 22 21 22 22 21 21 22 22 22 22 22 22 22 21 21 20 20 20 20 20 21 22 23 23 23 23 23 23 24 24 25 25 25 24 24 22 21 20 20
28 29 30 31 33 33 33 33 32 31 30 30 30 29 27 25 25 25 24 23 21 20 18 16 15 16 15 14 15 16 16 17 20 22 24 26 28 28 28 28 29 29 29 27 26 25 24 24 24 25 24 23 23 23 23 22 22 22 22 21 21 21 21 21 21 21 21 22 23 23 23 23 24 24 24 24 24 25 24 24 23 23 22 21 21
26 29 31 32 33 34 34 34 34 33 32 32 31 30 30 29 29 29 28 27 26 25 23 22 21 20 19 17 17 17 17 17 17 17 19 22 25 27 28 28 29 29 29 29 29 28 27 27 27 27 27 26 25 24 23 23 23 24 24 24 24 23 23 22 22 22 22 22 22 23 23 23 24 24 24 25 24 24 24 23 22 22 22 22 21
27 28 30 32 34 34 34 34 34 34 34 33 32 32 31 30 29 28 27 28 28 28 27 26 25 24 23 22 21 20 20 20 19 17 16 17 20 23 25 27 29 30 29 28 29 30 30 29 29 29 29 28 27 25 24 24 25 26 27 27 26 26 26 25 25 24 24 24 23 23 23 23 24 25 25 25 25 25 24 23 22 22 22 22 21
29 28 29 32 34 35 35 35 35 35 35 35 34 34 33 33 32 31 30 30 30 31 30 29 28 27 26 25 25 24 23 23 22 21 20 19 18 20 22 23 24 26 27 28 29 30 31 31 30 29 30 30 29 27 27 27 28 29 30 29 29 28 27 26 26 26 26 25 25 24 24 24 24 25 26 26 27 26 25 24 23 22 22 21 21
31 30 30 31 32 34 35 36 36 37 37 37 36 35 35 35 34 34 33 32 32 31 31 30 30 29 29 28 27 27 26 25 24 24 24 23 22 22 22 22 22 22 24 26 28 31 32 31 30 29 30 30 31 31 31 31 31 31 31 31 30 29 27 26 26 26 27 26 26 26 25 25 25 26 27 27 27 27 25 24 24 23 22 21 21
35 33 33 33 34 34 34 35 36 38 39 39 38 38 37 37 36 36 36 35 34 33 33 33 32 32 31 31 30 29 29 28 27 26 26 26 26 25 24 23 23 22 23 24 26 29 31 30 29 29 29 30 32 33 33 33 32 32 32 32 31 29 28 28 27 27 27 27 27 26 26 26 26 27 28 28 28 27 26 24 24 23 22 22 24
40 38 37 37 37 36 36 36 37 38 39 39 40 39 39 39 39 39 38 37 37 36 35 35 35 34 34 33 33 33 32 31 30 29 29 28 28 28 26 25 24 25 26 27 27 28 28 27 27 27 29 30 32 32 33 32 33 33 32 32 32 31 30 30 29 28 27 27 27 28 28 28 28 29 29 29 29 28 27 26 26 24 23 23 27
40 40 40 40 40 39 39 39 39 40 40 40 40 41 41 41 41 41 40 40 40 39 38 38 37 37 37 36 36 35 35 34 33 32 32 31 31 30 30 29 28 28 29 30 30 29 27 24 23 24 27 30 32 33 32 32 32 33 33 33 33 32 32 32 31 29 28 28 29 29 30 30 31 31 31 31 31 30 30 29 28 27 27 28 30
39 40 41 41 41 41 40 40 40 40 41 42 42 42 42 42 43 43 43 42 42 41 40 40 39 39 39 38 37 37 37 37 36 35 35 34 34 34 33 33 32 32 32 31 31 30 28 25 23 24 25 28 30 32 33 32 32 32 33 33 34 34 35 35 33 31 30 31 31 32 32 32 33 32 32 32 32 33 33 32 31 31 32 33 33
40 41 42 42 42 42 42 41 41 41 41 42 43 44 44 44 44 44 44 44 44 43 42 42 41 41 41 41 40 40 40 39 38 37 37 36 36 36 36 35 34 34 33 33 32 31 29 28 26 26 26 26 27 29 31 31 32 32 32 33 34 35 37 36 34 33 33 34 33 33 33 33 33 33 33 34 34 34 34 34 33 34 34 35 35
41 43 44 44 44 44 44 44 44 43 43 43 43 44 44 45 45 46 46 46 45 44 43 43 42 42 43 43 42 42 42 42 41 41 39 39 38 38 37 36 35 34 34 33 33 32 31 30 29 29 28 28 28 29 29 30 30 31 32 33 34 34 35 35 35 35 36 36 36 35 34 34 34 34 35 35 34 34 35 35 35 35 36 36 37
42 44 45 46 47 47 47 46 46 46 45 45 45 45 45 45 45 45 46 46 46 45 44 43 43 43 43 43 44 43 43 43 43 43 42 41 40 39 38 37 36 35 35 34 34 34 33 32 31 31 31 31 31 32 31 31 31 31 32 33 34 35 34 34 33 34 36 38 38 38 37 36 36 36 36 36 35 35 36 36 36 37 37 38 38
44 45 46 47 47 48 48 48 48 47 47 46 46 46 46 45 45 45 45 46 46 46 45 44 43 43 43 43 44 44 44 44 44 44 44 43 42 41 40 39 38 37 37 36 36 35 35 34 34 34 34 33 33 34 34 33 33 33 33 34 35 35 36 35 34 34 35 36 38 39 40 39 38 37 37 37 37 38 38 38 38 38 39 39 40
44 46 46 46 47 47 48 48 48 48 48 47 47 47 46 46 46 45 45 45 45 46 45 45 44 44 43 43 43 43 44 44 44 44 44 44 44 43 43 42 40 39 39 38 38 37 37 36 36 36 36 36 35 35 35 36 36 36 36 36 35 35 36 36 36 35 35 35 36 38 39 40 39 38 37 37 37 38 38 39 39 40 40 40 41
43 45 47 48 48 48 48 48 48 48 48 48 47 47 47 47 47 46 46 46 46 46 46 46 46 45 44 44 43 43 44 44 44 44 44 44 44 44 44 44 43 42 41 40 39 39 38 38 37 37 37 38 37 37 37 38 38 39 39 39 39 38 37 37 37 37 36 36 37 37 38 38 38 38 38 37 37 37 38 39 40 40 40 40 41
45 45 46 47 48 48 49 49 49 49 49 49 48 48 48 48 49 49 49 49 48 48 48 47 47 47 46 46 45 45 44 44 44 45 45 44 45 45 45 45 45 44 43 42 41 41 41 40 39 38 38 39 39 39 39 39 40 40 41 41 41 41 40 38 38 37 37 36 37 38 38 37 37 37 38 37 37 37 37 38 39 40 41 41 42
48 47 47 47 48 48 49 50 50 50 50 50 50 50 50 50 50 50 50 50 50 50 50 50 50 50 49 49 49 48 47 47 46 46 46 46 46 46 45 46 46 46 46 45 44 43 43 42 41 41 40 40 40 40 41 41 41 41 41 41 42 42 42 41 40 39 38 37 37 37 38 38 38 38 37 37 37 37 37 37 38 39 41 42 43
45 46 47 48 49 49 49 49 50 51 51 51 51 51 51 51 51 52 52 52 52 52 52 52 52 52 52 52 52 51 51 50 49 49 48 48 48 48 48 47 47 47 48 47 47 45 45 45 44 44 44 43 42 41 42 43 42 42 42 43 43 44 44 43 43 42 40 40 39 39 39 39 40 39 38 38 38 38 38 37 38 38 38 40 42
Wind_Direction
169 167 174 181 180 173 171 176 175 172 174 176 175 173 170 169 165 159 155 149 143 137 136 137 136 137 137 135 132 132 129 127 128 126 124 123 123 121 118 116 112 111 110 110 110 109 108 107 106 106 106 108 111 111 113 114 113 112 110 106 102 99 97 97 102 104 103 106 107 106 111 115 114 115 118 119 117 115 113 111 109 107 102 99 99
172 174 177 188 190 179 175 180 180 177 179 180 179 177 174 174 173 168 160 153 150 145 143 143 142 140 140 140 137 134 131 128 129 127 123 122 122 122 121 118 115 115 115 115 116 113 110 108 106 106 108 110 111 112 114 116 116 116 114 111 106 102 100 98 100 100 101 104 105 105 109 112 114 117 117 118 117 115 113 112 110 107 104 103 106
179 181 184 191 193 186 180 181 182 181 182 183 183 181 179 179 179 174 167 163 160 155 151 149 144 139 138 142 139 135 135 134 130 129 128 126 124 125 124 122 121 120 120 122 122 117 112 110 109 109 109 111 110 111 114 117 120 120 119 117 112 108 106 104 104 102 100 103 103 105 111 114 116 117 117 118 118 116 115 113 111 107 104 106 112
185 182 183 191 192 189 183 180 181 181 183 187 188 189 187 184 183 180 175 172 170 163 159 156 150 139 137 143 143 142 142 141 135 133 136 134 130 131 130 128 126 124 124 123 121 117 113 113 113 112 112 113 113 113 114 117 122 124 122 121 119 117 113 109 111 111 106 104 103 105 112 120 124 122 116 117 121 123 121 115 110 106 102 104 114
183 186 183 186 190 188 181 181 183 180 184 189 192 196 196 190 187 185 182 179 178 176 171 167 157 144 139 144 150 150 146 142 139 138 140 138 136 135 133 131 132 132 129 123 118 115 117 118 116 113 111 114 116 117 117 117 121 124 124 127 127 125 121 114 112 113 112 109 107 108 112 118 125 126 120 119 124 128 126 118 109 103 99 98 115
179 188 189 184 185 186 181 186 190 185 186 191 194 198 202 199 193 190 189 186 186 187 184 177 162 146 142 145 151 152 148 146 142 139 139 139 140 138 134 133 133 133 129 123 119 117 119 120 117 115 115 118 120 119 119 119 119 122 126 131 133 132 128 123 118 116 116 114 111 113 115 119 126 129 124 123 128 133 131 126 115 108 106 107 128
179 186 190 182 179 188 190 192 196 191 189 193 195 197 202 205 201 195 194 193 193 193 191 185 170 156 150 152 155 153 153 152 146 144 141 139 141 138 137 137 131 129 126 122 119 117 115 115 116 118 119 120 120 119 120 120 121 122 126 130 135 139 136 127 122 117 117 117 116 116 120 125 131 131 126 126 132 139 142 139 131 126 124 130 146
180 184 186 180 177 186 190 193 198 195 194 198 198 199 203 207 206 202 198 199 198 197 194 189 179 171 167 162 160 156 155 156 156 155 150 142 141 141 141 141 135 132 128 123 119 115 111 113 119 120 118 118 118 119 121 122 123 124 127 130 136 142 140 133 127 122 120 120 120 121 122 125 130 132 130 132 137 145 154 154 149 151 146 147 154
182 184 183 181 181 183 182 181 189 195 200 203 199 200 205 207 208 207 204 204 203 200 197 193 186 181 178 175 170 163 158 160 164 163 158 151 148 147 146 144 142 138 132 126 121 115 112 115 119 117 115 114 115 119 122 122 124 126 129 132 137 143 145 142 136 131 130 126 125 128 127 129 134 136 138 140 145 153 160 163 163 168 170 164 160
184 186 184 183 184 184 181 178 184 196 203 205 200 200 205 206 208 209 208 209 206 203 201 197 194 189 186 185 178 172 168 164 166 168 166 163 159 156 152 149 148 146 141 137 131 124 120 119 117 115 114 112 111 116 119 120 124 127 131 133 136 143 150 150 145 140 137 135 134 135 134 134 135 138 143 148 154 159 161 169 176 176 197 202 178
188 188 187 188 189 185 184 186 191 198 203 205 199 198 203 204 206 208 210 212 210 207 204 202 201 196 192 193 187 180 177 173 170 170 171 172 170 166 160 157 157 155 151 147 142 137 132 127 122 120 120 118 117 115 115 120 127 130 135 137 137 144 151 153 153 149 145 141 138 140 140 138 134 138 145 149 159 167 168 175 182 177 191 217 214
193 191 192 195 195 188 187 194 197 197 202 206 197 194 201 203 203 206 207 211 213 211 208 206 206 205 201 199 195 188 185 182 178 175 175 177 176 172 168 164 165 165 160 155 152 146 142 139 135 131 127 125 123 120 117 122 130 135 140 145 146 148 152 156 159 157 152 147 141 143 147 147 145 145 145 149 163 174 177 181 186 181 182 199 216
194 192 197 200 201 195 191 196 199 196 198 204 197 190 197 202 204 207 207 211 215 215 214 210 208 211 211 208 204 198 193 190 188 184 180 179 178 178 177 173 173 175 169 162 160 155 151 152 150 141 134 130 128 125 123 124 133 141 146 152 154 153 156 159 164 164 159 152 147 148 153 154 152 149 150 160 172 179 181 185 193 195 192 193 200
196 196 199 201 203 202 198 196 199 197 191 199 202 192 192 200 201 207 211 212 216 219 221 219 215 214 216 217 213 209 204 198 196 195 191 185 181 181 183 181 180 183 178 170 167 163 160 163 161 150 142 141 138 135 132 130 137 143 148 156 158 157 160 163 167 168 164 157 154 154 156 157 155 155 160 173 187 190 187 187 191 199 205 204 204
201 202 200 200 203 205 202 195 193 195 189 194 202 195 190 196 199 201 205 206 211 216 221 225 224 221 220 220 219 218 215 207 201 202 200 194 188 186 187 188 187 187 184 179 175 170 167 169 168 160 155 154 150 144 140 140 143 144 148 157 159 158 163 167 169 169 167 163 160 158 157 157 161 167 172 180 192 200 197 195 193 194 205 212 218
208 206 199 202 205 205 204 196 188 192 195 196 202 203 199 201 205 204 203 203 202 204 211 217 221 223 222 221 220 220 221 217 209 205 204 201 196 192 191 192 192 190 188 185 183 179 174 174 174 170 168 169 165 156 151 151 149 145 151 160 160 160 165 171 174 172 172 170 167 164 161 162 168 177 185 189 192 196 202 206 202 200 209 219 227
210 205 202 207 206 203 203 196 188 195 201 201 205 210 208 207 211 211 209 208 205 201 201 203 209 217 218 217 218 217 218 220 217 210 206 206 204 199 196 197 196 194 192 190 190 188 182 179 178 176 176 176 176 173 166 162 158 155 160 163 161 163 167 174 178 176 176 176 176 173 169 168 169 175 188 196 194 196 206 212 208 208 216 225 231
212 205 208 212 210 208 207 202 198 201 206 209 211 216 217 216 218 218 215 214 213 209 203 199 202 209 212 212 214 214 214 215 218 216 211 210 209 205 202 201 201 199 197 195 194 195 191 185 182 181 182 182 182 184 182 177 173 170 169 165 164 167 170 175 179 179 178 181 184 182 178 179 176 173 183 191 193 203 215 218 216 217 222 227 234
219 216 217 217 214 215 216 215 212 207 206 208 210 216 222 223 222 221 218 215 215 215 211 205 203 204 208 210 210 211 211 212 215 217 216 213 210 209 206 204 204 204 203 200 197 197 197 194 190 188 189 188 186 188 191 188 186 184 178 172 170 173 176 177 180 182 182 185 190 188 185 190 189 182 187 192 191 202 215 217 219 226 231 233 237
226 226 226 218 208 211 215 219 219 214 210 208 207 213 223 226 223 221 222 218 215 214 214 213 208 205 205 206 207 208 207 209 213 215 218 217 213 211 209 207 208 208 208 207 203 200 199 199 199 198 197 196 193 192 195 196 196 193 185 179 178 180 182 182 183 185 186 187 191 193 193 197 198 195 198 201 198 201 208 212 218 225 229 233 236
230 226 226 220 214 213 214 220 223 219 216 216 214 215 223 229 225 223 224 221 217 214 213 214 211 206 205 206 207 209 207 206 209 212 214 215 216 215 212 211 212 212 212 213 210 206 202 202 204 205 204 203 200 199 200 202 204 202 194 186 184 186 187 189 192 191 189 189 190 195 199 201 203 204 206 209 211 211 211 215 222 225 226 231 235
228 222 224 222 220 218 216 217 222 222 219 220 218 216 222 229 229 228 223 219 221 220 218 218 214 207 209 215 214 214 215 213 214 215 216 219 222 221 219 218 219 219 218 218 218 215 210 206 207 208 209 210 209 207 207 208 210 210 207 199 191 191 193 196 199 197 194 195 195 196 200 202 205 207 208 210 215 218 218 220 226 231 234 238 241
224 219 220 220 219 219 216 214 218 220 217 217 216 217 222 226 231 232 224 217 222 224 222 225 222 211 216 225 222 216 217 219 222 220 217 220 225 226 226 226 228 230 229 227 227 226 222 216 213 213 213 214 215 215 214 214 215 215 216 212 201 198 200 201 202 202 201 203 203 201 202 204 207 209 210 211 214 218 221 224 229 235 240 244 246
221 216 215 216 217 217 216 218 220 218 217 219 219 219 223 225 230 234 227 219 225 229 226 228 228 221 221 226 226 219 211 211 219 220 216 215 219 223 224 224 226 233 237 237 236 235 233 229 224 221 219 219 219 221 221 219 218 218 219 219 213 206 206 206 205 206 209 211 210 207 207 209 211 212 214 215 216 219 223 226 230 234 239 243 246
215 214 213 214 215 216 218 224 226 223 222 225 225 220 221 224 226 228 226 224 228 230 226 224 223 220 217 217 221 222 216 210 215 221 219 215 215 222 226 225 221 223 231 239 243 242 241 240 238 234 229 227 225 225 225 222 220 219 218 219 218 214 212 212 210 210 214 217 218 216 214 214 215 216 218 218 219 221 224 228 232 235 238 241 244
210 210 213 215 217 217 218 225 230 229 227 228 229 226 221 223 219 212 219 231 231 229 225 222 222 222 217 215 218 222 221 217 216 219 219 214 211 216 223 227 226 223 223 229 239 246 247 246 246 245 241 237 233 230 228 225 222 220 218 218 218 217 214 216 217 216 217 219 221 222 223 223 222 222 223 223 223 224 226 230 233 236 239 241 245
211 211 215 219 222 221 220 225 231 233 232 230 231 233 232 232 225 208 219 238 241 237 230 225 225 225 220 220 221 219 218 220 220 222 221 215 211 213 217 223 227 228 227 225 228 238 246 248 248 248 246 242 239 236 233 229 225 222 220 217 217 217 215 216 219 220 221 222 224 225 227 228 229 229 230 231 231 230 231 233 235 238 241 244 247
216 215 217 220 225 226 225 227 231 234 237 235 233 234 234 234 232 221 221 232 238 242 241 233 230 228 224 224 223 217 215 218 221 226 227 222 217 215 216 220 224 227 229 229 226 227 236 243 245 245 246 245 243 240 236 233 230 227 225 222 219 217 216 215 217 220 221 224 226 228 229 230 231 231 233 235 237 238 238 239 241 244 247 250 252
221 217 216 219 224 227 228 228 230 231 235 237 236 236 236 235 236 230 223 227 229 231 239 243 238 233 229 226 224 219 218 220 221 226 229 226 221 219 219 220 223 225 228 230 229 226 229 237 239 239 240 242 242 241 239 237 234 232 230 228 226 223 220 218 217 218 219 221 224 227 229 231 233 233 233 235 238 240 242 243 244 246 249 251 254
222 218 216 218 223 228 229 230 232 232 234 237 236 236 238 238 236 229 223 226 227 226 231 241 247 245 235 227 223 221 221 221 220 222 226 226 225 224 223 223 223 225 226 228 229 227 225 231 237 237 234 234 236 239 239 238 236 234 232 231 230 229 227 225 223 222 222 222 223 225 227 230 232 234 235 236 238 240 243 244 245 245 247 249 251
223 219 217 217 220 226 229 230 232 234 237 239 239 236 235 234 232 227 223 225 226 224 228 235 243 250 240 226 219 219 219 220 219 220 225 229 230 229 228 226 225 226 227 228 230 230 226 227 233 237 237 234 233 235 237 238 238 236 234 232 232 231 231 231 229 228 228 227 227 227 228 229 231 233 234 236 238 240 243 245 246 246 247 248 249
222 219 217 216 218 222 227 229 230 232 234 235 237 236 232 228 226 228 230 231 232 230 228 229 233 239 236 224 218 218 218 219 221 224 228 232 233 232 230 228 226 226 227 229 230 231 231 230 231 234 238 238 236 235 236 239 241 241 240 238 235 234 233 233 232 232 232 232 231 231 231 231 232 234 235 236 238 240 243 245 247 248 248 249 250
222 220 217 217 217 219 224 228 230 231 231 232 232 232 230 223 220 226 234 237 239 238 234 230 230 233 234 229 224 221 220 220 224 228 232 233 233 232 231 229 227 226 226 229 232 231 231 233 235 235 235 237 238 237 236 237 240 243 245 246 245 242 239 238 237 237 237 237 236 235 235 235 235 237 238 239 240 242 244 247 249 250 250 250 251
224 222 220 218 218 220 223 227 230 231 231 231 232 232 231 229 228 233 239 242 244 244 242 239 236 237 241 239 234 231 229 226 226 229 233 234 233 230 228 226 226 226 226 228 233 233 230 230 235 238 237 235 234 236 237 238 238 239 240 242 244 245 244 242 241 240 240 241 242 241 240 240 240 241 243 244 244 245 245 247 249 251 252 250 249
224 224 223 221 220 222 224 227 230 231 232 233 233 233 233 235 239 241 241 240 241 244 246 246 245 245 249 251 249 248 247 242 237 235 234 232 231 229 226 224 224 225 226 228 233 235 233 230 231 236 240 240 238 236 236 237 239 239 238 237 236 236 237 238 239 239 238 240 242 243 244 244 244 245 246 248 249 249 248 248 247 248 250 250 250
227 225 225 224 223 223 225 227 229 231 233 235 235 235 236 238 240 239 237 237 241 245 249 250 249 249 251 253 255 257 257 253 250 248 245 239 234 231 228 228 229 228 228 229 233 235 236 235 234 235 239 243 244 242 239 237 237 238 239 237 235 234 233 233 234 234 235 236 238 240 242 243 245 246 248 249 250 251 252 252 250 249 249 249 251
232 228 227 227 226 226 227 228 230 232 233 235 236 238 240 241 241 240 240 243 247 250 251 251 251 252 253 254 255 256 258 259 257 255 252 249 245 239 234 235 237 237 235 235 237 238 238 238 238 238 240 243 245 245 243 241 240 239 239 239 238 238 237 237 237 237 237 237 237 238 239 240 241 243 245 247 248 250 251 253 254 254 254 253 253
238 234 231 230 230 229 229 230 231 232 234 235 237 238 240 242 243 244 245 246 247 250 252 252 252 253 254 255 256 257 257 258 259 259 258 254 251 247 243 243 246 245 242 240 240 240 240 239 239 242 244 245 244 244 244 244 244 244 245 245 244 243 243 242 242 242 243 242 242 242 242 243 244 244 245 246 247 248 249 251 254 257 260 263 262
244 241 237 235 234 233 232 232 232 234 235 237 237 238 240 241 243 245 246 246 246 248 250 251 252 253 254 254 255 256 256 256 256 258 259 259 257 255 253 254 254 253 250 247 245 244 243 240 240 243 247 247 246 246 246 247 247 248 250 251 252 250 249 247 245 244 244 245 245 245 246 246 247 248 249 250 250 250 249 250 253 255 259 262 264
245 244 242 240 239 238 236 235 234 235 236 238 239 239 240 241 242 244 245 246 246 247 248 250 251 252 253 254 254 254 255 255 256 255 257 259 260 259 259 258 258 258 257 255 254 252 248 243 242 245 248 247 247 248 250 250 250 251 252 254 255 254 253 253 251 249 247 247 247 248 248 248 248 249 251 253 254 255 254 253 253 254 254 254 256
242 242 241 241 241 240 239 238 236 236 237 238 239 240 240 241 242 243 245 245 246 248 249 250 251 252 253 254 254 254 254 254 255 255 256 257 258 258 258 256 255 256 256 257 257 257 255 252 251 252 251 248 247 248 250 251 253 254 254 254 254 254 253 253 254 253 251 250 249 248 248 249 249 250 251 253 255 257 257 257 257 258 256 254 255
238 238 238 238 239 240 240 240 239 238 238 238 239 239 240 241 242 244 245 246 246 247 249 250 251 253 254 255 255 256 257 257 256 256 255 255 255 256 256 255 254 254 256 257 258 259 260 260 260 260 258 255 251 249 250 251 253 254 255 255 254 253 252 252 253 253 252 251 250 250 250 250 251 252 252 253 254 255 256 257 258 258 258 258 259
235 235 236 236 237 237 238 239 239 239 239 239 239 239 240 240 242 243 245 246 246 246 247 248 250 252 254 255 256 258 260 261 260 259 258 257 256 256 255 255 255 255 256 257 258 259 260 261 261 262 262 262 258 254 252 252 252 253 254 254 254 254 253 253 253 252 251 251 251 252 252 253 255 255 255 255 256 257 258 258 258 258 259 260 261
235 235 236 237 237 236 237 238 238 238 238 239 240 240 240 240 241 242 244 246 247 247 247 247 247 249 251 254 255 257 259 261 262 262 262 261 261 260 259 259 258 258 258 259 260 260 260 260 259 259 258 258 259 259 258 257 257 256 255 254 254 254 254 253 252 251 251 252 253 253 253 253 254 255 256 257 258 259 260 261 261 261 261 262 262
234 236 237 238 238 238 237 238 238 239 239 239 240 241 242 242 242 242 243 245 246 248 248 248 247 247 249 251 253 255 257 259 261 262 263 263 263 262 262 262 262 261 260 260 261 261 260 259 258 256 255 254 255 257 260 261 262 261 258 256 255 256 256 255 253 251 250 251 253 254 254 253 253 253 255 257 259 260 261 262 263 263 263 264 264
233 236 237 238 239 239 239 239 240 241 241 242 242 242 243 244 244 244 244 245 246 247 249 249 249 248 248 249 250 252 254 255 257 259 261 262 263 263 262 262 261 261 260 260 260 260 260 259 258 257 256 254 253 254 258 260 261 261 261 259 257 257 258 258 256 254 253 253 253 254 255 255 255 256 257 258 260 261 262 263 264 265 265 265 265
233 235 237 238 239 240 241 241 242 243 243 244 244 244 245 245 246 246 246 246 246 247 248 249 250 250 250 250 249 250 251 252 254 255 257 260 261 262 262 262 261 260 259 259 259 259 259 258 258 257 257 256 255 254 255 257 258 258 258 258 257 258 259 259 258 257 256 255 255 255 256 256 256 257 259 260 261 262 262 263 264 265 266 266 265
236 237 238 239 240 241 241 242 243 244 245 245 246 246 247 247 247 247 247 247 247 248 248 249 250 251 252 252 251 251 251 251 252 252 253 255 257 259 261 262 262 261 259 258 258 258 257 256 256 256 256 257 256 255 255 255 255 255 255 256 257 257 258 259 260 259 258 256 256 256 256 256 255 256 258 259 260 260 260 261 262 263 264 265 266
240 240 241 241 242 243 243 244 244 245 246 247 247 247 248 248 249 249 249 249 249 250 250 251 252 253 253 253 253 253 253 253 253 252 253 253 254 255 257 259 261 261 260 260 259 259 258 257 255 254 254 254 255 255 254 254 253 254 254 255 256 256 257 257 258 259 259 258 256 256 256 256 255 255 256 257 258 259 259 260 261 262 264 265 267
242 243 243 244 244 245 245 246 246 247 247 248 249 249 249 250 251 251 251 251 252 252 252 253 253 254 254 255 255 255 255 255 255 254 254 254 254 254 254 255 257 259 260 260 259 259 259 259 258 256 255 253 252 253 253 253 253 253 254 255 255 255 256 256 256 256 256 256 256 255 255 256 256 256 256 257 257 258 259 259 261 263 265 266 267
245 244 245 245 246 246 246 247 247 248 249 249 250 250 251 251 252 252 253 253 253 253 254 254 255 255 255 256 256 256 256 256 256 255 255 256 256 255 255 254 254 256 258 259 259 258 258 259 259 259 258 257 255 253 253 254 254 253 253 254 254 255 255 255 255 254 253 253 254 254 254 254 255 255 256 257 257 257 258 259 261 263 266 267 268
Height
5930 5931 5932 5933 5933 5934 5936 5937 5938 5940 5941 5942 5943 5943 5944 5945 5946 5947 5948 5949 5950 5951 5951 5952 5953 5954 5954 5955 5955 5956 5957 5957 5957 5957 5957 5957 5958 5958 5959 5959 5959 5959 5959 5960 5961 5961 5962 5962 5962 5962 5963 5963 5963 5963 5963 5964 5963 5963 5963 5963 5963 5963 5963 5963 5963 5964 5964 5964 5964 5965 5965 5965 5966 5966 5966 5967 5966 5966 5966 5966 5966 5967 5967 5967 5967
5929 5931 5932 5933 5933 5934 5936 5937 5938 5939 5940 5941 5942 5943 5944 5945 5946 5947 5948 5949 5950 5951 5952 5952 5953 5954 5955 5955 5956 5956 5957 5957 5958 5958 5958 5958 5958 5959 5959 5959 5960 5960 5960 5961 5961 5962 5963 5963 5963 5963 5963 5964 5964 5964 5964 5964 5964 5964 5964 5964 5964 5964 5964 5964 5964 5965 5964 5965 5965 5966 5966 5967 5967 5967 5968 5968 5968 5968 5968 5968 5968 5968 5969 5969 5969
5929 5931 5932 5933 5933 5934 5935 5937 5938 5939 5940 5941 5942 5943 5944 5945 5946 5947 5948 5949 5950 5951 5952 5952 5953 5954 5955 5955 5956 5956 5957 5958 5958 5958 5959 5959 5959 5959 5960 5960 5960 5961 5961 5962 5962 5963 5963 5963 5964 5964 5964 5964 5965 5965 5965 5965 5965 5965 5965 5965 5965 5965 5965 5965 5965 5966 5966 5966 5966 5967 5967 5968 5968 5969 5969 5970 5970 5970 5970 5969 5969 5970 5970 5970 5970
5929 5930 5932 5932 5933 5934 5935 5936 5937 5938 5939 5940 5941 5942 5943 5945 5946 5947 5948 5949 5950 5950 5951 5952 5953 5953 5954 5954 5955 5956 5956 5957 5958 5959 5960 5960 5960 5961 5961 5961 5961 5961 5962 5962 5962 5963 5963 5964 5964 5964 5965 5965 5965 5965 5966 5966 5966 5966 5966 5965 5966 5966 5966 5966 5966 5967 5967 5967 5967 5968 5968 5969 5970 5970 5971 5971 5971 5972 5972 5971 5971 5971 5972 5972 5972
5928 5930 5931 5932 5933 5934 5935 5936 5936 5937 5938 5939 5940 5941 5942 5944 5946 5947 5948 5949 5950 5950 5950 5951 5952 5953 5954 5954 5955 5955 5956 5957 5958 5959 5960 5960 5961 5962 5962 5962 5962 5962 5962 5963 5963 5963 5963 5964 5965 5965 5965 5965 5965 5966 5966 5966 5967 5967 5967 5967 5967 5967 5967 5967 5967 5967 5968 5968 5969 5969 5969 5970 5971 5971 5972 5972 5972 5973 5973 5973 5973 5973 5973 5973 5973
5927 5929 5930 5931 5932 5933 5935 5936 5936 5937 5938 5938 5939 5941 5942 5943 5945 5946 5948 5948 5949 5950 5950 5951 5952 5953 5954 5954 5955 5955 5956 5957 5958 5958 5959 5960 5961 5962 5962 5963 5963 5963 5963 5963 5963 5963 5964 5964 5965 5966 5966 5966 5966 5966 5966 5966 5967 5967 5968 5968 5968 5968 5968 5968 5968 5968 5968 5969 5969 5970 5970 5971 5972 5972 5973 5973 5974 5974 5975 5975 5975 5975 5974 5975 5975
5926 5928 5929 5931 5932 5933 5934 5936 5936 5937 5938 5938 5939 5940 5941 5942 5944 5946 5947 5948 5948 5949 5950 5951 5952 5953 5954 5954 5955 5956 5956 5957 5957 5958 5959 5960 5960 5961 5962 5963 5963 5963 5963 5963 5963 5964 5964 5964 5965 5966 5966 5966 5967 5967 5967 5967 5967 5968 5968 5969 5969 5969 5969 5969 5969 5969 5969 5970 5970 5971 5971 5971 5972 5973 5974 5974 5975 5975 5976 5976 5976 5976 5976 5976 5976
5926 5928 5929 5930 5932 5933 5934 5935 5937 5937 5938 5938 5939 5939 5940 5942 5943 5945 5946 5947 5948 5949 5950 5951 5952 5953 5954 5954 5955 5956 5956 5957 5958 5958 5959 5959 5960 5961 5962 5962 5963 5963 5963 5963 5963 5964 5964 5965 5965 5966 5966 5967 5967 5967 5967 5967 5967 5968 5969 5969 5969 5969 5970 5970 5970 5970 5970 5971 5971 5971 5972 5972 5973 5974 5975 5975 5976 5976 5977 5977 5977 5977 5977 5977 5976
5924 5927 5928 5929 5931 5932 5933 5935 5936 5937 5937 5938 5938 5939 5940 5941 5942 5944 5945 5946 5947 5948 5949 5951 5952 5953 5954 5955 5955 5956 5957 5957 5958 5958 5959 5959 5960 5961 5961 5962 5962 5962 5963 5963 5964 5964 5965 5965 5965 5966 5967 5967 5967 5968 5968 5968 5968 5968 5969 5969 5970 5970 5970 5971 5971 5971 5971 5972 5972 5972 5973 5973 5974 5975 5975 5976 5977 5977 5978 5978 5978 5979 5978 5978 5977
5923 5926 5927 5928 5929 5931 5933 5934 5935 5936 5937 5937 5938 5938 5939 5940 5941 5943 5944 5945 5946 5947 5949 5950 5952 5953 5954 5955 5955 5956 5956 5957 5957 5958 5958 5959 5960 5960 5961 5961 5962 5962 5962 5963 5964 5964 5965 5965 5966 5966 5967 5967 5968 5968 5968 5968 5969 5969 5969 5969 5970 5971 5971 5971 5972 5972 5972 5972 5973 5973 5974 5974 5975 5975 5976 5976 5977 5978 5978 5979 5979 5979 5979 5979 5978
5922 5925 5926 5927 5928 5930 5931 5933 5934 5935 5936 5936 5937 5938 5938 5939 5940 5942 5943 5944 5945 5947 5948 5950 5951 5952 5954 5954 5955 5956 5956 5956 5957 5957 5958 5959 5959 5960 5960 5961 5961 5962 5962 5963 5963 5964 5965 5965 5966 5966 5966 5967 5968 5968 5969 5969 5969 5969 5970 5970 5970 5971 5972 5972 5972 5973 5973 5973 5973 5974 5974 5975 5976 5976 5976 5977 5978 5978 5979 5979 5979 5980 5980 5979 5979
5921 5923 5925 5926 5927 5929 5930 5932 5933 5934 5935 5936 5937 5937 5938 5939 5940 5941 5942 5943 5945 5946 5947 5949 5950 5952 5953 5954 5955 5955 5956 5956 5956 5957 5958 5959 5959 5960 5960 5961 5961 5961 5962 5962 5963 5964 5964 5965 5966 5966 5966 5967 5967 5968 5969 5969 5970 5970 5970 5970 5971 5971 5972 5972 5973 5973 5974 5974 5974 5975 5975 5976 5976 5977 5978 5978 5978 5979 5979 5979 5980 5980 5980 5980 5979
5920 5922 5924 5925 5926 5928 5929 5930 5932 5933 5935 5936 5937 5938 5938 5939 5940 5941 5942 5943 5944 5945 5947 5948 5949 5951 5952 5954 5955 5955 5956 5956 5956 5957 5957 5958 5959 5960 5960 5961 5961 5961 5962 5962 5963 5963 5964 5965 5965 5965 5966 5966 5967 5968 5968 5969 5970 5970 5970 5971 5971 5971 5972 5973 5973 5974 5974 5974 5975 5975 5976 5976 5977 5977 5978 5979 5979 5979 5979 5980 5980 5980 5980 5980 5980
5919 5920 5922 5924 5925 5926 5928 5929 5931 5933 5934 5936 5936 5937 5938 5939 5940 5941 5942 5943 5944 5945 5946 5947 5948 5950 5951 5953 5954 5955 5956 5956 5957 5957 5957 5958 5958 5959 5960 5960 5961 5961 5962 5962 5962 5963 5964 5964 5965 5965 5965 5966 5966 5967 5968 5969 5969 5970 5970 5971 5971 5972 5972 5973 5973 5974 5974 5975 5975 5975 5976 5977 5977 5978 5978 5979 5980 5980 5979 5980 5980 5980 5980 5980 5980
5917 5918 5920 5922 5924 5924 5926 5928 5930 5932 5934 5934 5935 5936 5937 5938 5939 5940 5941 5942 5943 5944 5945 5946 5948 5949 5950 5951 5953 5954 5955 5956 5956 5957 5957 5957 5958 5958 5959 5960 5960 5961 5962 5962 5962 5963 5963 5964 5964 5964 5965 5966 5966 5967 5967 5968 5969 5969 5970 5971 5971 5971 5972 5972 5973 5974 5975 5975 5975 5976 5976 5977 5978 5978 5978 5978 5979 5979 5980 5980 5980 5980 5980 5980 5980
5913 5916 5919 5920 5920 5921 5924 5927 5930 5931 5932 5933 5934 5934 5936 5937 5938 5939 5939 5941 5942 5943 5944 5945 5946 5947 5948 5950 5951 5952 5954 5955 5956 5956 5956 5957 5957 5957 5958 5959 5959 5960 5961 5962 5962 5962 5963 5963 5963 5964 5965 5965 5966 5966 5967 5967 5968 5968 5969 5970 5971 5971 5972 5972 5973 5974 5974 5975 5975 5976 5977 5977 5977 5978 5978 5978 5979 5979 5980 5980 5980 5980 5980 5981 5981
5911 5915 5917 5915 5916 5920 5924 5928 5930 5931 5931 5932 5932 5933 5934 5935 5936 5937 5938 5940 5940 5941 5942 5943 5944 5945 5946 5948 5949 5950 5952 5953 5954 5955 5955 5956 5956 5957 5957 5958 5959 5959 5960 5961 5962 5962 5962 5962 5963 5963 5964 5965 5965 5966 5966 5966 5967 5967 5969 5970 5970 5971 5971 5972 5973 5974 5974 5975 5975 5976 5976 5977 5977 5977 5978 5979 5979 5979 5979 5979 5980 5980 5980 5980 5980
5909 5912 5912 5912 5916 5920 5924 5928 5931 5931 5930 5930 5931 5932 5933 5934 5935 5936 5937 5938 5939 5940 5940 5941 5942 5943 5944 5945 5947 5948 5949 5950 5952 5953 5954 5955 5955 5956 5956 5957 5957 5958 5959 5960 5961 5961 5962 5962 5962 5963 5963 5964 5964 5965 5965 5966 5966 5966 5967 5968 5969 5970 5971 5971 5972 5973 5973 5974 5975 5975 5976 5977 5977 5977 5978 5978 5979 5979 5979 5979 5979 5979 5979 5980 5980
5908 5911 5912 5915 5918 5920 5922 5926 5927 5927 5926 5927 5929 5930 5931 5932 5933 5934 5935 5936 5937 5938 5939 5939 5940 5940 5941 5942 5944 5945 5947 5948 5950 5951 5953 5953 5954 5954 5955 5956 5956 5957 5958 5959 5960 5960 5961 5961 5961 5962 5962 5963 5963 5964 5965 5965 5965 5966 5966 5967 5968 5969 5970 5971 5971 5972 5973 5973 5974 5975 5975 5976 5976 5977 5977 5978 5978 5979 5979 5979 5979 5979 5979 5979 5980
5908 5912 5914 5916 5917 5916 5918 5921 5922 5923 5924 5925 5926 5928 5929 5929 5931 5932 5933 5934 5935 5936 5937 5937 5937 5938 5938 5939 5940 5942 5944 5946 5947 5949 5951 5952 5953 5953 5954 5955 5955 5956 5957 5957 5958 5959 5960 5960 5961 5961 5961 5962 5962 5963 5964 5964 5965 5965 5966 5966 5967 5968 5969 5970 5970 5971 5972 5972 5973 5974 5975 5975 5976 5976 5977 5977 5978 5978 5979 5979 5979 5979 5979 5979 5979
5907 5911 5913 5914 5914 5915 5917 5919 5920 5921 5922 5923 5925 5927 5928 5928 5929 5929 5930 5932 5933 5933 5933 5933 5933 5934 5935 5936 5938 5940 5942 5943 5945 5947 5949 5951 5952 5953 5953 5954 5955 5955 5956 5957 5957 5958 5959 5959 5960 5960 5961 5961 5962 5962 5963 5963 5964 5965 5965 5966 5966 5967 5968 5969 5970 5970 5971 5971 5972 5973 5974 5974 5975 5976 5976 5977 5977 5978 5978 5978 5978 5978 5978 5978 5978
5908 5910 5912 5913 5913 5914 5915 5917 5918 5918 5920 5922 5925 5926 5926 5926 5926 5925 5926 5929 5930 5929 5929 5930 5932 5935 5936 5937 5939 5941 5943 5944 5946 5947 5949 5950 5952 5953 5954 5954 5955 5956 5956 5957 5957 5958 5959 5959 5959 5960 5960 5960 5961 5961 5962 5963 5964 5964 5965 5966 5966 5967 5967 5968 5969 5969 5970 5971 5971 5972 5972 5973 5974 5975 5975 5976 5976 5977 5977 5977 5977 5977 5977 5977 5978
5907 5908 5909 5910 5912 5913 5914 5916 5916 5917 5919 5921 5923 5924 5924 5924 5924 5922 5924 5927 5926 5926 5928 5932 5936 5939 5939 5939 5940 5941 5942 5945 5946 5946 5947 5949 5950 5952 5953 5954 5955 5956 5957 5957 5958 5958 5959 5959 5959 5959 5960 5960 5960 5961 5962 5962 5963 5964 5965 5966 5966 5967 5967 5967 5968 5969 5969 5970 5971 5971 5971 5972 5973 5974 5974 5974 5975 5975 5976 5976 5976 5976 5976 5976 5977
5904 5905 5907 5908 5909 5910 5912 5914 5915 5916 5918 5919 5920 5921 5921 5921 5922 5922 5924 5925 5924 5925 5929 5932 5936 5938 5938 5938 5939 5939 5940 5941 5942 5944 5945 5947 5948 5950 5952 5953 5954 5955 5956 5957 5958 5959 5959 5959 5959 5960 5960 5960 5960 5960 5961 5962 5963 5963 5964 5965 5966 5967 5967 5967 5967 5968 5969 5970 5970 5970 5971 5971 5972 5972 5973 5973 5973 5974 5974 5974 5974 5975 5975 5975 5975
5902 5903 5904 5906 5907 5908 5911 5912 5914 5915 5916 5917 5918 5919 5919 5919 5921 5923 5924 5923 5923 5925 5927 5929 5931 5933 5933 5934 5936 5938 5937 5938 5940 5942 5945 5946 5947 5949 5950 5951 5952 5953 5954 5956 5957 5958 5959 5960 5960 5960 5960 5960 5960 5960 5960 5960 5961 5962 5963 5964 5965 5966 5966 5967 5967 5968 5968 5969 5970 5970 5970 5971 5971 5971 5971 5972 5972 5972 5972 5973 5973 5973 5973 5973 5974
5899 5900 5901 5903 5904 5907 5909 5910 5911 5913 5915 5915 5916 5917 5918 5918 5920 5922 5922 5921 5921 5923 5925 5927 5928 5929 5930 5931 5933 5935 5936 5936 5938 5940 5943 5944 5944 5946 5948 5949 5950 5951 5952 5953 5955 5956 5958 5959 5959 5960 5959 5959 5959 5959 5959 5959 5959 5960 5961 5962 5963 5964 5965 5966 5966 5967 5968 5968 5969 5970 5970 5970 5970 5971 5971 5971 5971 5971 5971 5971 5971 5971 5972 5972 5972
5897 5898 5899 5900 5902 5904 5907 5908 5908 5909 5911 5913 5915 5916 5916 5917 5918 5919 5920 5920 5920 5921 5923 5925 5926 5927 5929 5930 5931 5933 5935 5935 5935 5937 5940 5941 5942 5943 5945 5947 5948 5950 5951 5951 5952 5953 5955 5956 5957 5958 5958 5958 5958 5958 5958 5958 5958 5958 5959 5960 5961 5962 5963 5964 5964 5966 5966 5967 5968 5969 5969 5969 5970 5970 5970 5970 5970 5970 5970 5970 5970 5970 5971 5971 5971
5894 5895 5897 5898 5899 5901 5904 5905 5906 5907 5909 5911 5913 5914 5914 5915 5916 5917 5918 5919 5919 5920 5922 5923 5924 5926 5927 5928 5930 5932 5933 5933 5933 5934 5937 5940 5941 5942 5943 5944 5946 5947 5949 5949 5950 5951 5952 5953 5954 5955 5956 5956 5956 5956 5956 5956 5957 5957 5957 5958 5958 5959 5960 5961 5962 5963 5964 5965 5966 5967 5968 5968 5969 5969 5969 5969 5969 5969 5969 5969 5970 5970 5970 5970 5970
5892 5893 5894 5895 5896 5898 5900 5902 5904 5906 5907 5909 5910 5912 5912 5914 5915 5917 5917 5918 5919 5920 5921 5921 5922 5923 5925 5926 5928 5930 5931 5931 5932 5933 5935 5937 5939 5940 5940 5942 5944 5945 5946 5947 5948 5948 5949 5950 5952 5953 5953 5954 5954 5954 5954 5955 5955 5955 5956 5956 5957 5958 5959 5959 5960 5960 5961 5962 5963 5964 5965 5966 5967 5967 5968 5968 5968 5968 5968 5968 5969 5969 5969 5969 5969
5889 5890 5892 5893 5894 5895 5897 5900 5902 5904 5905 5906 5908 5909 5909 5911 5913 5915 5916 5917 5919 5919 5920 5920 5920 5921 5922 5923 5925 5927 5929 5930 5931 5932 5933 5934 5936 5937 5939 5940 5942 5943 5944 5945 5946 5946 5947 5947 5949 5950 5951 5952 5952 5952 5952 5952 5953 5953 5954 5955 5956 5957 5957 5958 5959 5959 5959 5960 5960 5961 5962 5963 5964 5965 5966 5966 5967 5967 5967 5967 5967 5967 5967 5967 5968
5886 5887 5889 5890 5891 5892 5894 5897 5900 5901 5903 5904 5905 5906 5907 5908 5911 5913 5914 5915 5917 5917 5918 5918 5919 5919 5920 5921 5923 5924 5926 5928 5929 5931 5932 5932 5933 5935 5937 5939 5940 5942 5942 5943 5943 5944 5944 5945 5945 5947 5948 5949 5949 5949 5950 5950 5951 5952 5952 5953 5954 5955 5956 5957 5958 5958 5958 5958 5959 5959 5960 5960 5961 5962 5963 5964 5964 5965 5965 5965 5965 5965 5965 5966 5966
5882 5884 5886 5887 5888 5889 5891 5893 5896 5898 5900 5901 5902 5903 5905 5906 5909 5910 5912 5914 5915 5915 5916 5916 5918 5919 5920 5920 5922 5923 5925 5926 5927 5929 5929 5930 5931 5932 5934 5936 5937 5939 5940 5941 5941 5941 5942 5942 5943 5944 5945 5946 5947 5947 5948 5949 5950 5951 5952 5952 5952 5953 5954 5955 5956 5956 5956 5956 5957 5957 5958 5958 5959 5959 5960 5961 5962 5962 5962 5962 5963 5963 5964 5964 5964
5877 5879 5882 5884 5885 5887 5888 5890 5892 5895 5897 5898 5900 5901 5902 5904 5906 5908 5909 5911 5912 5913 5914 5915 5916 5918 5919 5920 5921 5922 5923 5923 5924 5925 5926 5927 5928 5929 5931 5933 5934 5936 5937 5938 5939 5940 5940 5940 5940 5941 5942 5943 5944 5945 5946 5947 5948 5950 5951 5952 5952 5952 5952 5953 5954 5954 5955 5955 5955 5955 5956 5956 5957 5957 5958 5958 5959 5960 5960 5961 5961 5962 5963 5963 5963
5874 5876 5878 5880 5882 5884 5886 5887 5889 5891 5893 5895 5896 5898 5900 5901 5903 5905 5906 5908 5909 5911 5911 5912 5914 5915 5917 5918 5919 5920 5920 5920 5920 5922 5923 5924 5925 5926 5928 5930 5932 5933 5934 5935 5936 5937 5937 5937 5938 5938 5939 5940 5942 5943 5944 5945 5946 5947 5948 5949 5950 5950 5950 5951 5951 5952 5953 5953 5954 5954 5954 5955 5955 5955 5956 5956 5957 5958 5959 5959 5960 5961 5961 5962 5962
5872 5873 5875 5877 5879 5881 5883 5885 5887 5888 5890 5892 5893 5895 5897 5898 5900 5902 5903 5905 5906 5908 5909 5910 5911 5913 5914 5915 5916 5917 5917 5917 5918 5919 5921 5921 5922 5923 5925 5927 5928 5930 5931 5931 5932 5933 5934 5934 5935 5936 5936 5938 5939 5941 5943 5943 5943 5943 5943 5944 5945 5945 5946 5947 5947 5948 5949 5950 5951 5951 5952 5953 5953 5953 5954 5954 5955 5956 5956 5957 5958 5959 5959 5959 5960
5868 5870 5872 5874 5876 5878 5880 5882 5884 5885 5887 5888 5890 5892 5893 5895 5897 5898 5899 5901 5903 5904 5905 5907 5908 5909 5911 5912 5913 5914 5914 5915 5916 5918 5919 5920 5921 5922 5923 5924 5926 5927 5927 5928 5929 5930 5930 5931 5932 5933 5934 5936 5937 5939 5940 5940 5939 5939 5938 5938 5939 5940 5941 5942 5943 5944 5945 5946 5947 5948 5949 5949 5950 5951 5951 5952 5952 5953 5954 5955 5956 5957 5957 5957 5958
5864 5867 5869 5870 5872 5874 5876 5878 5880 5881 5883 5884 5886 5888 5889 5891 5893 5894 5895 5897 5899 5900 5902 5903 5905 5906 5907 5908 5909 5910 5911 5912 5913 5915 5916 5918 5919 5920 5921 5922 5924 5925 5925 5926 5926 5927 5927 5928 5929 5931 5933 5934 5935 5936 5936 5935 5935 5935 5934 5934 5935 5937 5938 5940 5942 5943 5943 5944 5945 5945 5946 5946 5946 5947 5947 5947 5948 5949 5951 5952 5953 5954 5954 5955 5956
5861 5863 5865 5866 5868 5870 5872 5874 5875 5877 5878 5879 5881 5883 5885 5886 5887 5889 5891 5893 5895 5896 5897 5899 5901 5902 5903 5905 5906 5907 5908 5909 5910 5912 5913 5915 5917 5918 5919 5921 5922 5922 5923 5923 5924 5925 5925 5925 5926 5928 5930 5931 5932 5931 5931 5931 5931 5932 5932 5933 5934 5935 5937 5939 5940 5941 5942 5942 5943 5943 5944 5944 5944 5944 5943 5944 5944 5946 5947 5949 5950 5951 5952 5953 5953
5857 5859 5861 5862 5863 5866 5869 5870 5871 5872 5873 5875 5877 5879 5881 5882 5883 5885 5886 5888 5890 5892 5893 5895 5896 5898 5900 5901 5902 5903 5904 5906 5907 5909 5910 5912 5913 5915 5916 5917 5918 5919 5919 5920 5921 5922 5923 5922 5922 5925 5927 5928 5928 5927 5927 5928 5929 5930 5931 5932 5932 5934 5935 5935 5936 5938 5939 5940 5941 5941 5941 5942 5942 5942 5941 5942 5942 5943 5944 5945 5946 5947 5949 5950 5949
5852 5854 5855 5856 5858 5861 5864 5865 5866 5868 5869 5870 5872 5874 5876 5878 5879 5880 5882 5883 5885 5887 5889 5890 5892 5894 5895 5897 5898 5899 5900 5901 5903 5905 5907 5908 5909 5911 5912 5914 5915 5916 5917 5917 5918 5920 5920 5918 5918 5921 5923 5923 5923 5923 5924 5925 5926 5927 5928 5929 5930 5931 5932 5932 5933 5935 5936 5937 5938 5938 5938 5939 5939 5939 5939 5939 5939 5940 5942 5943 5943 5944 5946 5946 5944
5846 5848 5849 5850 5853 5855 5858 5859 5861 5863 5864 5866 5868 5870 5871 5873 5874 5875 5877 5879 5880 5882 5884 5886 5887 5889 5890 5892 5893 5895 5896 5897 5899 5901 5903 5904 5905 5907 5908 5910 5912 5913 5914 5915 5915 5916 5915 5914 5915 5917 5918 5919 5920 5920 5920 5922 5922 5923 5924 5925 5927 5928 5928 5929 5930 5932 5933 5934 5934 5935 5935 5935 5935 5935 5935 5936 5936 5937 5938 5939 5941 5941 5941 5941 5940
5839 5841 5843 5845 5847 5849 5852 5853 5855 5857 5859 5861 5863 5864 5866 5868 5869 5870 5872 5873 5875 5877 5879 5881 5882 5883 5885 5886 5888 5889 5891 5892 5894 5896 5898 5900 5901 5903 5904 5905 5907 5908 5909 5910 5910 5910 5910 5911 5913 5914 5915 5916 5916 5917 5917 5918 5919 5919 5920 5921 5922 5923 5924 5925 5926 5927 5928 5929 5929 5930 5930 5931 5931 5932 5932 5932 5932 5932 5933 5935 5936 5936 5936 5936 5936
5833 5834 5837 5840 5842 5844 5846 5847 5849 5852 5854 5856 5857 5859 5861 5862 5864 5866 5867 5868 5870 5872 5874 5875 5877 5878 5879 5881 5882 5883 5884 5886 5888 5890 5892 5894 5896 5897 5899 5900 5902 5903 5904 5904 5905 5906 5907 5909 5910 5911 5912 5913 5914 5914 5914 5914 5915 5916 5916 5917 5918 5918 5919 5921 5923 5923 5923 5923 5924 5925 5926 5927 5927 5928 5928 5928 5928 5929 5929 5930 5931 5931 5931 5931 5931
5827 5828 5830 5833 5836 5838 5840 5841 5843 5845 5847 5849 5851 5853 5855 5857 5859 5861 5862 5864 5865 5866 5868 5870 5871 5873 5874 5875 5876 5877 5879 5880 5882 5883 5886 5888 5889 5891 5893 5894 5896 5897 5899 5899 5900 5902 5903 5905 5906 5907 5908 5909 5910 5910 5910 5910 5911 5912 5912 5913 5913 5914 5914 5916 5918 5919 5918 5918 5919 5921 5922 5923 5923 5923 5924 5924 5924 5925 5925 5925 5925 5925 5926 5926 5926
5820 5822 5824 5827 5829 5831 5833 5835 5836 5838 5841 5843 5845 5847 5848 5850 5853 5855 5857 5858 5860 5861 5862 5864 5866 5867 5869 5870 5871 5872 5874 5875 5876 5877 5879 5880 5882 5884 5886 5888 5889 5891 5893 5894 5895 5896 5898 5899 5901 5902 5903 5905 5905 5905 5905 5905 5906 5907 5908 5908 5909 5909 5910 5911 5913 5913 5913 5914 5915 5916 5917 5918 5918 5919 5919 5919 5919 5919 5919 5919 5920 5920 5921 5921 5921
5814 5816 5818 5820 5823 5825 5827 5828 5830 5832 5834 5836 5839 5840 5842 5844 5846 5849 5851 5853 5854 5856 5857 5858 5860 5861 5863 5865 5866 5867 5868 5869 5870 5871 5872 5874 5875 5877 5879 5881 5883 5884 5886 5887 5889 5890 5892 5893 5895 5896 5897 5899 5900 5900 5900 5901 5902 5903 5904 5904 5904 5904 5905 5906 5907 5908 5909 5909 5910 5910 5911 5913 5914 5914 5915 5915 5915 5914 5914 5914 5915 5915 5915 5915 5915
5809 5810 5812 5814 5816 5818 5820 5822 5824 5826 5828 5830 5832 5834 5836 5838 5840 5842 5844 5846 5848 5849 5851 5852 5853 5855 5857 5859 5861 5862 5863 5864 5865 5866 5867 5868 5869 5870 5872 5874 5876 5878 5880 5882 5883 5885 5886 5888 5889 5890 5891 5892 5894 5895 5896 5896 5897 5898 5899 5899 5900 5900 5900 5901 5902 5903 5904 5905 5906 5906 5907 5908 5909 5909 5910 5910 5910 5909 5909 5909 5909 5909 5909 5909 5909
5803 5805 5807 5808 5809 5811 5813 5815 5817 5819 5821 5823 5825 5827 5829 5831 5833 5835 5837 5839 5840 5842 5844 5845 5847 5848 5850 5852 5853 5855 5857 5858 5860 5861 5862 5863 5864 5865 5866 5867 5869 5872 5874 5876 5877 5879 5881 5882 5884 5885 5886 5887 5888 5890 5891 5891 5892 5893 5893 5894 5894 5895 5895 5896 5897 5898 5900 5901 5901 5902 5902 5903 5903 5904 5904 5904 5904 5904 5904 5903 5903 5903 5903 5903 5902
5797 5799 5800 5801 5803 5804 5806 5809 5811 5812 5814 5816 5817 5819 5821 5823 5825 5827 5829 5831 5833 5835 5836 5838 5840 5841 5843 5844 5846 5847 5849 5851 5853 5854 5856 5858 5859 5860 5861 5862 5863 5864 5866 5869 5871 5872 5874 5876 5878 5879 5881 5882 5883 5884 5885 5886 5886 5887 5887 5888 5889 5889 5890 5891 5892 5893 5895 5896 5897 5897 5897 5897 5898 5898 5898 5898 5898 5898 5898 5898 5898 5897 5897 5897 5897
5790 5792 5793 5794 5796 5798 5800 5802 5803 5805 5806 5808 5810 5812 5814 5816 5818 5820 5822 5824 5826 5827 5829 5830 5832 5833 5835 5836 5838 5840 5842 5844 5845 5847 5849 5850 5852 5854 5855 5857 5857 5858 5859 5861 5864 5865 5867 5868 5870 5872 5873 5875 5877 5877 5878 5878 5880 5881 5882 5883 5883 5883 5884 5885 5887 5888 5890 5891 5892 5892 5892 5892 5892 5892 5892 5892 5892 5893 5893 5893 5893 5892 5892 5892 5892
5782 5784 5785 5787 5788 5791 5793 5794 5795 5797 5798 5800 5802 5804 5806 5808 5810 5812 5814 5816 5818 5819 5821 5822 5824 5825 5827 5829 5831 5833 5834 5836 5838 5839 5841 5842 5844 5846 5848 5850 5851 5852 5853 5854 5856 5858 5860 5861 5862 5864 5865 5867 5870 5871 5871 5872 5873 5875 5876 5876 5876 5876 5877 5879 5880 5882 5883 5885 5886 5886 5887 5886 5886 5886 5886 5886 5887 5887 5888 5888 5888 5888 5888 5887 5887